Content
SEND FEEDBACK

Daily
Averages
Monthly
Summary
Thailand

RAYONG, THAILAND


Home > Asia > Thailand
Elevation: 16 feet     Latitude: 12 38N     Longitude: 101 21E

WEATHER
 
SELECT A DAY
Number of Records: 203,366;   Date Range: 7/1/96 - 9/28/14
 
SHARE

PRINT THIS DATA

[ ← Previous Day ]
WEATHER ALMANAC - OCTOBER 18, 2013
[ Next Day → ]
[ °C ]   °F
Weather ElementAverageHighLow
Temperature81.9 °F87.8 °F (11:30 am)75.2 °F (3:00 am)
Dewpoint75.3 °F77 °F (11:30 am)73.4 °F (1:30 am)
Humidity81.2 %94 % (12:30 am)66 % (10:30 am)
Barometer29.85 in29.89 in (8:00 am)29.77 in (3:30 pm)
Wind Speed3.2 mph9.2 mph (11:30 am)
Weather ElementAverage
Visibility4.8 mi
Wind DirectionE (94.8 °)

Weather ElementTotal
Precipitation---
Cooling Degree Days16.5 (Base 65)
Growing Degree Days31.5 (Base 50)
Averaged from 46 records on October 18, 2013
WEATHER CONDITIONS BREAKOUT
WIND DIRECTION BREAKOUT
WEATHER BY HOUR - OCTOBER 18, 2013
[ °C ]   °F
Local TimeTemperatureDewpointHumidityBarometerVisibilityWind DirectionWind SpeedGust SpeedPrecipitationEventsConditions
12:30 AM77.0 °F75.2 °F94 %29.86 in3.7 miCalmMostly Cloudy
1:30 AM77.0 °F73.4 °F89 %29.86 in3.7 miCalmMostly Cloudy
2:00 AM77.0 °F73.4 °F89 %29.83 in3.7 miCalmMostly Cloudy
2:30 AM77.0 °F73.4 °F89 %29.83 in3.7 miCalmMostly Cloudy
3:00 AM75.2 °F73.4 °F94 %29.83 in3.7 miCalmMostly Cloudy
3:30 AM75.2 °F73.4 °F94 %29.83 in3.7 miCalmMostly Cloudy
4:00 AM75.2 °F73.4 °F94 %29.83 in3.7 miCalmMostly Cloudy
4:30 AM75.2 °F73.4 °F94 %29.80 in3.7 miNorth (350°)5.8 mphMostly Cloudy
5:00 AM75.2 °F73.4 °F94 %29.83 in3.7 miCalmMostly Cloudy
5:30 AM75.2 °F73.4 °F94 %29.83 in3.7 miCalmMostly Cloudy
6:00 AM75.2 °F73.4 °F94 %29.83 in3.1 miCalmMostly Cloudy
6:30 AM75.2 °F73.4 °F94 %29.83 in3.1 miCalmMostly Cloudy
7:00 AM75.2 °F73.4 °F94 %29.86 in3.7 miCalmMostly Cloudy
7:30 AM77.0 °F73.4 °F89 %29.86 in4.3 miCalmMostly Cloudy
8:00 AM78.8 °F75.2 °F89 %29.89 in4.3 miCalmMostly Cloudy
8:30 AM80.6 °F75.2 °F84 %29.89 in4.3 miNNW (340°)3.5 mphMostly Cloudy
9:00 AM82.4 °F75.2 °F79 %29.89 in4.3 miSE (140°)3.5 mphMostly Cloudy
9:30 AM82.4 °F73.4 °F74 %29.89 in4.3 miSSE (150°)3.5 mphMostly Cloudy
10:00 AM86.0 °F75.2 °F70 %29.89 in5.0 miSSE (150°)4.6 mphMostly Cloudy
10:30 AM86.0 °F73.4 °F66 %29.89 in5.0 miSSE (150°)6.9 mphMostly Cloudy
11:00 AM86.0 °F73.4 °F66 %29.89 in5.0 miSSE (160°)6.9 mphMostly Cloudy
11:30 AM87.8 °F77.0 °F70 %29.89 in5.0 miSouth (180°)9.2 mphMostly Cloudy
12:00 PM87.8 °F75.2 °F66 %29.86 in5.6 miSSW (200°)9.2 mphMostly Cloudy
12:30 PM87.8 °F75.2 °F66 %29.86 in5.6 miSouth (190°)6.9 mphMostly Cloudy
1:00 PM87.8 °F75.2 °F66 %29.83 in6.2 miSSE (160°)6.9 mphMostly Cloudy
1:30 PM87.8 °F75.2 °F66 %29.86 in6.2 miSouth (180°)6.9 mphScattered Clouds
2:00 PM87.8 °F75.2 °F66 %29.83 in6.2 miSSE (160°)9.2 mphScattered Clouds
2:30 PM87.8 °F75.2 °F66 %29.80 in6.2 miSouth (170°)9.2 mphScattered Clouds
3:00 PM87.8 °F77.0 °F70 %29.80 in6.2 miSouth (170°)9.2 mphScattered Clouds
3:30 PM87.8 °F77.0 °F70 %29.77 in6.2 miSouth (170°)9.2 mphMostly Cloudy
4:00 PM87.8 °F77.0 °F70 %29.77 in6.2 miSouth (170°)6.9 mphMostly Cloudy
4:30 PM87.8 °F77.0 °F70 %29.77 in6.2 miSouth (180°)6.9 mphMostly Cloudy
5:00 PM86.0 °F75.2 °F70 %29.77 in6.2 miSouth (170°)6.9 mphMostly Cloudy
5:30 PM86.0 °F77.0 °F74 %29.80 in6.2 miSouth (180°)4.6 mphMostly Cloudy
6:00 PM84.2 °F77.0 °F79 %29.80 in6.2 miSouth (170°)4.6 mphMostly Cloudy
6:30 PM84.2 °F77.0 °F79 %29.80 in5.6 miSW (230°)3.5 mphMostly Cloudy
7:00 PM82.4 °F77.0 °F84 %29.83 in5.0 miWSW (240°)3.5 mphMostly Cloudy
7:30 PM82.4 °F77.0 °F84 %29.83 in5.0 miCalmMostly Cloudy
8:00 PM82.4 °F77.0 °F84 %29.86 in5.0 miCalmMostly Cloudy
8:30 PM82.4 °F77.0 °F84 %29.86 in5.0 miCalmMostly Cloudy
9:00 PM82.4 °F77.0 °F84 %29.89 in5.0 miCalmMostly Cloudy
9:30 PM80.6 °F77.0 °F89 %29.89 in4.3 miCalmMostly Cloudy
10:00 PM80.6 °F77.0 °F89 %29.89 in4.3 miCalmMostly Cloudy
10:30 PM80.6 °F77.0 °F89 %29.89 in4.3 miCalmMostly Cloudy
11:00 PM80.6 °F77.0 °F89 %29.89 in4.3 miCalmMostly Cloudy
11:30 PM80.6 °F77.0 °F89 %29.89 in4.3 miCalmMostly Cloudy
Hourly data recorded from VTBU, located miles away from Rayong, Thailand







STORIES FROM OUR PARTNERS